Weather History for Lowell, ID

Change the Weather History Date:

Thursday, April 18, 2013

  Actual Average Record
Temperature  
Mean Temperature 41 °F -  
Max Temperature 54 °F 59 °F 73 °F (1999)
Min Temperature 28 °F 36 °F 28 °F (2013)
Degree Days  
Heating Degree Days 24    
Moisture  
Dew Point 29 °F    
Average Humidity 67    
Maximum Humidity 89    
Minimum Humidity 35    
Precipitation  
Precipitation 0.00 in - - ()
Sea Level Pressure  
Sea Level Pressure 30.42 in    
Wind  
Wind Speed 0 mph (North)    
Max Wind Speed 0 mph    
Max Gust Speed -    
Averages and records for this station are not official NWS values.
T = Trace of Precipitation, MM = Missing Value Source: NWS Daily Summary

Daily Weather History Graph

Daily Weather History Graph

Search for Another Location

Airport:

Trip Planner

Search our weather history database for the weather conditions in past years. The results will help you decide how hot, cold, wet, or windy it might be!

Date:

Astronomy

Apr. 18, 2013 Rise Set
Actual Time 6:49 AM MDT 8:34 PM MDT
Civil Twilight 6:18 AM MDT 9:05 PM MDT
Nautical Twilight 5:39 AM MDT 9:44 PM MDT
Astronomical Twilight 4:57 AM MDT 10:27 PM MDT
Moon 1:02 PM MDT (4/18) 2:55 AM MDT (4/18)
Length of Visible Light 14h 47m
Length of Day
13h 44m
First Quarter, 52% of the Moon is Illuminated
Apr 18
First Quarter
Apr 25
Full
May 2
Last Quarter
May 9
New
May 17
First Quarter

Hourly Weather History & Observations

Time (MDT) Temp. Dew Point Humidity Pressure Visibility Wind Dir Wind Speed Gust Speed Precip Events Conditions
12:52 AM 33.1 °F 27.0 °F 78% 30.43 in - Calm Calm - N/A   Unknown
1:52 AM 30.9 °F 26.1 °F 82% 30.44 in - Calm Calm - N/A   Unknown
2:52 AM 30.0 °F 26.1 °F 85% 30.44 in - Calm Calm - N/A   Unknown
3:52 AM 28.9 °F 26.1 °F 89% 30.45 in - Calm Calm - N/A   Unknown
4:52 AM 28.9 °F 26.1 °F 89% 30.45 in - Calm Calm - N/A   Unknown
5:52 AM 28.0 °F 25.0 °F 88% 30.46 in - Calm Calm - N/A   Unknown
6:52 AM 30.0 °F 26.1 °F 85% 30.47 in - Calm Calm - N/A   Unknown
7:52 AM 30.9 °F 26.1 °F 82% 30.49 in - Calm Calm - N/A   Unknown
8:52 AM 33.1 °F 27.0 °F 78% 30.49 in - Calm Calm - N/A   Unknown
9:52 AM 36.0 °F 27.0 °F 70% 30.49 in - Calm Calm - N/A   Unknown
10:52 AM 39.9 °F 26.1 °F 58% 30.49 in - Calm Calm - N/A   Unknown
11:52 AM 43.0 °F 25.0 °F 49% 30.46 in - Calm Calm - N/A   Unknown
12:52 PM 46.0 °F 24.1 °F 42% 30.45 in - Calm Calm - N/A   Unknown
1:52 PM 48.0 °F 28.9 °F 48% 30.43 in - Calm Calm - N/A   Unknown
2:52 PM 51.1 °F 25.0 °F 36% 30.41 in - Calm Calm - N/A   Unknown
3:52 PM 53.1 °F 28.0 °F 38% 30.39 in - Calm Calm - N/A   Unknown
4:52 PM 54.0 °F 27.0 °F 35% 30.38 in - Calm Calm - N/A   Unknown
5:52 PM 54.0 °F 28.0 °F 37% 30.35 in - Calm Calm - N/A   Unknown
6:52 PM 48.9 °F 36.0 °F 61% 30.36 in - Calm Calm - N/A   Unknown
7:52 PM 46.9 °F 37.9 °F 71% 30.36 in - Calm Calm - N/A   Unknown
8:52 PM 45.0 °F 37.0 °F 74% 30.35 in - Calm Calm - N/A   Unknown
9:52 PM 44.1 °F 37.0 °F 76% 30.35 in - Calm Calm - N/A   Unknown
10:52 PM 43.0 °F 36.0 °F 76% 30.33 in - Calm Calm - N/A   Unknown
11:52 PM 43.0 °F 36.0 °F 76% 30.31 in - Calm Calm - N/A   Unknown